User: anonymous
Location: Mentone
(34.5413°N, 85.5351°W)
Time: 17:03:02
(UTC-05:00)
Language:

Centaur AC-72 - Orbit

View from above orbital plane
View from above orbital plane
View from above satellite
View from above satellite

Ground track
Ground track

The orbit data is extracted from the following two-line orbital elements,

1 21907U 92013B   14261.45982361 -.00000226  00000-0  00000+0 0  9233
2 21907 019.0736 230.4902 6954682 287.2528 303.2415 02.25609604185647
Epoch (UTC): 18 September 2014 11:02:08
Eccentricity: 0.6954682
inclination: 19.0736°
perigee height: 1100 km
apogee height: 35256 km
right ascension of ascending node: 230.4902°
argument of perigee: 287.2528°
revolutions per day: 2.25609604
mean anomaly at epoch: 303.2415°
orbit number at epoch: 18564

The dashed part of the orbit path shows where the satellite is in the earth's shadow,  

DLR